When you browse on this site, cookies collect data to enhance your experience and personalize the content and advertising you see.
Visit our Privacy Policy to learn more. By continuing to use the site, you agree to this use of cookies and data.
  • In Hungary
  • List of Countries
  • For 7 days
  • Water Temperature
  • Weather Map
  • News
  • Weather Widgets
  • user-avatar
    Login

    Hourly Weather Stepanakert

    Today, 2 June, Tuesday

    Time Temperature Precipitation Wind Pressure Humidity
    00:00 +19°C° 0 mm 2 mps 689 mmHg 68%
    01:00 +19°C° 0 mm 2 mps 689 mmHg 66%
    02:00 +19°C° 0 mm 2 mps 689 mmHg 64%
    03:00 +18°C° 0 mm 2 mps 689 mmHg 63%
    04:00 +19°C° 0 mm 2 mps 689 mmHg 61%
    05:00 +20°C° 0 mm 2 mps 689 mmHg 60%
    06:00 +22°C° 0 mm 1 mps 689 mmHg 59%
    07:00 +24°C° 0 mm 1 mps 689 mmHg 54%
    08:00 +26°C° 0 mm 1 mps 689 mmHg 49%
    09:00 +28°C° 0 mm 1 mps 689 mmHg 45%
    10:00 +29°C° 0 mm 2 mps 689 mmHg 43%
    11:00 +30°C° 0 mm 2 mps 689 mmHg 41%
    12:00 +31°C° 0 mm 2 mps 689 mmHg 39%
    13:00 +31°C° 0 mm 3 mps 688 mmHg 40%
    14:00 +31°C° 0 mm 3 mps 688 mmHg 41%
    15:00 +31°C° 0 mm 3 mps 687 mmHg 42%
    16:00 +30°C° 0.2 mm 3 mps 687 mmHg 49%
    17:00 +28°C° 0.2 mm 3 mps 687 mmHg 55%
    18:00 +27°C° 0.2 mm 3 mps 687 mmHg 62%
    19:00 +25°C° 0.1 mm 3 mps 687 mmHg 66%
    20:00 +23°C° 0.1 mm 2 mps 687 mmHg 69%
    21:00 +20°C° 0.1 mm 2 mps 687 mmHg 73%
    22:00 +20°C° 0 mm 2 mps 686 mmHg 72%
    23:00 +20°C° 0 mm 2 mps 686 mmHg 71%

    Tomorrow, 3 June, Wednesday

    Time Temperature Precipitation Wind Pressure Humidity
    00:00 +20°C° 0 mm 2 mps 686 mmHg 71%
    01:00 +19°C° 0 mm 2 mps 686 mmHg 70%
    02:00 +19°C° 0 mm 2 mps 686 mmHg 70%
    03:00 +19°C° 0 mm 2 mps 686 mmHg 69%
    04:00 +20°C° 0 mm 2 mps 686 mmHg 68%
    05:00 +20°C° 0 mm 2 mps 686 mmHg 66%
    06:00 +21°C° 0 mm 2 mps 687 mmHg 65%
    07:00 +24°C° 0 mm 2 mps 687 mmHg 58%
    08:00 +26°C° 0 mm 2 mps 687 mmHg 52%
    09:00 +28°C° 0 mm 2 mps 688 mmHg 45%
    10:00 +29°C° 0 mm 2 mps 688 mmHg 42%
    11:00 +31°C° 0 mm 2 mps 688 mmHg 38%
    12:00 +33°C° 0 mm 3 mps 688 mmHg 34%
    13:00 +33°C° 0 mm 3 mps 688 mmHg 34%
    14:00 +33°C° 0 mm 4 mps 688 mmHg 35%
    15:00 +33°C° 0 mm 4 mps 687 mmHg 36%
    16:00 +29°C° 0.3 mm 4 mps 687 mmHg 44%
    17:00 +27°C° 0.3 mm 3 mps 687 mmHg 52%
    18:00 +25°C° 0.3 mm 2 mps 687 mmHg 60%
    19:00 +24°C° 0.1 mm 2 mps 688 mmHg 61%
    20:00 +21°C° 0.1 mm 2 mps 688 mmHg 62%
    21:00 +19°C° 0.1 mm 2 mps 688 mmHg 63%
    22:00 +19°C° 0 mm 2 mps 688 mmHg 63%
    23:00 +19°C° 0 mm 2 mps 688 mmHg 62%

    Day after tomorrow, 4 June, Thursday

    Time Temperature Precipitation Wind Pressure Humidity
    00:00 +19°C° 0 mm 3 mps 688 mmHg 61%
    01:00 +18°C° 0 mm 2 mps 688 mmHg 61%
    02:00 +18°C° 0 mm 2 mps 689 mmHg 61%
    03:00 +19°C° 0 mm 1 mps 689 mmHg 61%
    04:00 +20°C° 0 mm 1 mps 689 mmHg 61%
    05:00 +20°C° 0 mm 1 mps 690 mmHg 62%
    06:00 +21°C° 0 mm 1 mps 690 mmHg 62%
    07:00 +23°C° 0 mm 1 mps 691 mmHg 58%
    08:00 +24°C° 0 mm 1 mps 691 mmHg 54%
    09:00 +26°C° 0 mm 1 mps 691 mmHg 50%
    10:00 +27°C° 0 mm 2 mps 691 mmHg 49%
    11:00 +28°C° 0 mm 2 mps 691 mmHg 47%
    12:00 +28°C° 0 mm 3 mps 691 mmHg 46%
    13:00 +29°C° 0 mm 3 mps 691 mmHg 46%
    14:00 +29°C° 0 mm 3 mps 690 mmHg 45%
    15:00 +29°C° 0 mm 3 mps 690 mmHg 45%
    16:00 +28°C° 0 mm 3 mps 690 mmHg 51%
    17:00 +27°C° 0 mm 2 mps 690 mmHg 57%
    18:00 +26°C° 0 mm 2 mps 690 mmHg 63%
    19:00 +24°C° 0 mm 2 mps 690 mmHg 68%
    20:00 +22°C° 0 mm 1 mps 690 mmHg 74%
    21:00 +20°C° 0 mm 1 mps 691 mmHg 80%
    22:00 +20°C° 0 mm 1 mps 691 mmHg 79%
    23:00 +20°C° 0 mm 1 mps 691 mmHg 78%

    5 June, Friday

    Time Temperature Precipitation Wind Pressure Humidity
    00:00 +19°C° 0 mm 2 mps 691 mmHg 77%
    01:00 +19°C° 0 mm 1 mps 691 mmHg 75%
    02:00 +19°C° 0 mm 1 mps 691 mmHg 74%
    03:00 +19°C° 0 mm 1 mps 691 mmHg 72%
    04:00 +19°C° 0 mm 1 mps 691 mmHg 71%
    05:00 +20°C° 0 mm 1 mps 692 mmHg 71%
    06:00 +20°C° 0 mm 1 mps 692 mmHg 71%
    07:00 +22°C° 0 mm 1 mps 693 mmHg 67%
    08:00 +24°C° 0 mm 1 mps 693 mmHg 63%
    09:00 +25°C° 0 mm 2 mps 693 mmHg 59%
    10:00 +26°C° 0.2 mm 2 mps 693 mmHg 57%
    11:00 +27°C° 0.2 mm 2 mps 693 mmHg 55%
    12:00 +28°C° 0.2 mm 3 mps 693 mmHg 54%
    13:00 +28°C° 0.4 mm 3 mps 693 mmHg 52%
    14:00 +28°C° 0.4 mm 3 mps 693 mmHg 50%
    15:00 +29°C° 0.4 mm 3 mps 692 mmHg 48%
    16:00 +28°C° 0.3 mm 2 mps 692 mmHg 52%
    17:00 +27°C° 0.3 mm 2 mps 692 mmHg 56%
    18:00 +26°C° 0.3 mm 2 mps 692 mmHg 59%
    19:00 +24°C° 0.1 mm 1 mps 693 mmHg 65%
    20:00 +22°C° 0.1 mm 1 mps 693 mmHg 70%
    21:00 +20°C° 0.1 mm 1 mps 693 mmHg 75%
    22:00 +19°C° 0.4 mm 1 mps 693 mmHg 77%
    23:00 +19°C° 0.4 mm 1 mps 694 mmHg 78%

    6 June, Saturday

    Time Temperature Precipitation Wind Pressure Humidity
    00:00 +18°C° 0.4 mm 1 mps 694 mmHg 80%
    01:00 +18°C° 0.1 mm 1 mps 694 mmHg 81%
    02:00 +18°C° 0.1 mm 1 mps 694 mmHg 82%
    03:00 +18°C° 0.1 mm 1 mps 694 mmHg 83%
    04:00 +18°C° 0.4 mm 1 mps 694 mmHg 81%
    05:00 +19°C° 0.4 mm 1 mps 694 mmHg 79%
    06:00 +17°C° 0.4 mm 0 mps 695 mmHg 77%
    07:00 +20°C° 0.6 mm 1 mps 695 mmHg 73%
    08:00 +21°C° 0.6 mm 2 mps 695 mmHg 69%
    09:00 +22°C° 0.6 mm 3 mps 695 mmHg 65%
    10:00 +22°C° 0.3 mm 3 mps 695 mmHg 63%
    11:00 +24°C° 0.3 mm 3 mps 695 mmHg 62%
    12:00 +25°C° 0.3 mm 3 mps 695 mmHg 60%
    13:00 +25°C° 0.3 mm 3 mps 694 mmHg 60%
    14:00 +25°C° 0.3 mm 3 mps 694 mmHg 60%
    15:00 +25°C° 0.3 mm 3 mps 693 mmHg 60%
    16:00 +24°C° 0.8 mm 2 mps 693 mmHg 64%
    17:00 +24°C° 0.8 mm 2 mps 693 mmHg 67%
    18:00 +23°C° 0.8 mm 1 mps 694 mmHg 71%
    19:00 +22°C° 0.7 mm 1 mps 694 mmHg 74%
    20:00 +21°C° 0.7 mm 1 mps 694 mmHg 78%
    21:00 +19°C° 0.7 mm 1 mps 694 mmHg 81%
    22:00 +19°C° 0.6 mm 1 mps 694 mmHg 81%
    23:00 +19°C° 0.6 mm 1 mps 694 mmHg 81%

    7 June, Sunday

    Time Temperature Precipitation Wind Pressure Humidity
    00:00 +18°C° 0.6 mm 1 mps 694 mmHg 82%
    01:00 +18°C° 0.1 mm 1 mps 694 mmHg 81%
    02:00 +18°C° 0.1 mm 1 mps 694 mmHg 80%
    03:00 +16°C° 0.1 mm 1 mps 694 mmHg 79%
    04:00 +18°C° 0 mm 1 mps 694 mmHg 77%
    05:00 +19°C° 0 mm 1 mps 694 mmHg 75%
    06:00 +20°C° 0 mm 1 mps 695 mmHg 72%
    07:00 +21°C° 0 mm 1 mps 695 mmHg 68%
    08:00 +22°C° 0 mm 1 mps 695 mmHg 63%
    09:00 +24°C° 0 mm 2 mps 695 mmHg 59%
    10:00 +25°C° 0 mm 2 mps 695 mmHg 57%
    11:00 +25°C° 0 mm 2 mps 695 mmHg 55%
    12:00 +26°C° 0 mm 2 mps 695 mmHg 54%
    13:00 +27°C° 0 mm 2 mps 695 mmHg 53%
    14:00 +27°C° 0 mm 2 mps 694 mmHg 52%
    15:00 +27°C° 0 mm 2 mps 694 mmHg 51%
    16:00 +27°C° 0.1 mm 2 mps 694 mmHg 54%
    17:00 +26°C° 0.1 mm 2 mps 694 mmHg 57%
    18:00 +26°C° 0.1 mm 1 mps 694 mmHg 60%
    19:00 +24°C° 0 mm 1 mps 694 mmHg 63%
    20:00 +22°C° 0 mm 1 mps 694 mmHg 66%
    21:00 +20°C° 0 mm 1 mps 694 mmHg 69%
    22:00 +20°C° 0 mm 1 mps 694 mmHg 69%
    23:00 +20°C° 0 mm 1 mps 694 mmHg 69%
    Show more